Location: *
(35.2348°S, 91.3916°E)
Time: 13:26:19
(UTC+00:00)

Cosmos 1110 Rocket - Pass Details

Date: 23 October 2019
Orbit: 753 x 781 km, 74.0° (Epoch: 12 November)

Event Time Altitude Azimuth Distance (km) Brightness Sun altitude
Exits shadow 21:09:41 50° 301° (WNW) 963 4.1 -21.7°
Maximum altitude 21:10:45 62° 251° (WSW) 855 4.0 -21.5°
Drops below altitude 10° 21:15:58 10° 170° (S) 2,319 7.0 -20.6°
Sets 21:18:24 0° 166° (SSE) 3,256 7.9 -20.2°
